User: anonymous   Login
Location: Unspecified
(0.0000°N, 0.0000°E)
Time: 10:11:14
(UTC+00:00)
Language:

COSMOS 2498 - Orbit

View from above orbital plane
View from above orbital plane
View from above satellite
View from above satellite

Ground track
Ground track

The orbit data is extracted from the following two-line orbital elements,

1 39763U 14028C   18113.90381943  .00000043  00000-0  23841-3 0  9992
2 39763  82.4480 173.0735 0021995  77.0229 283.3302 12.42869795177857
Epoch (UTC): 23 April 2018 21:41:29
Eccentricity: 0.0021995
inclination: 82.4480°
perigee height: 1477 km
apogee height: 1512 km
right ascension of ascending node: 173.0735°
argument of perigee: 77.0229°
revolutions per day: 12.42869795
mean anomaly at epoch: 283.3302°
orbit number at epoch: 17785

The dashed part of the orbit path shows where the satellite is in the earth's shadow,  

DLR